Location: Cape Canaveral
(28.3922°N, 80.6077°W)
Time: 16:01:03
(UTC-05:00)

ISS - Pass Details

Date: 06 December 2021
Orbit: 413 x 422 km, 51.6° (Epoch: 20 January)

Event Time Altitude Azimuth Distance (km) Brightness Sun altitude
Rises 18:05:01 0° 338° (NNW) 2,376 0.1 -8.7°
Reaches altitude 10° 18:08:15 10° 12° (NNE) 1,505 -1.3 -9.4°
Maximum altitude 18:09:36 12° 36° (NE) 1,391 -1.6 -9.7°
Enters shadow 18:10:04 12° 44° (NE) 1,403 -1.7 -9.8°
